Showing default

PULSAR-0, 64541

Orbit data source: Space-Track

PULSAR-0, 64541 is an American payload satellite in SSO that was launched on Mon, 23 Jun 2025 UTC via an FALCON 9 launch vehicle from the Air Force Western Test Range (AFWTR). Payload-class satellites include a variety of spacecraft equipped with specific instruments for various scientific and technological missions. These include communications satellites like Starlink; space stations such as the ISS; scientific satellites like the Hubble; Earth observation satellites from companies like Planet Labs, Umbra, and HawkEye 360; GPS; miniature CubeSats for education and research; and military/defense satellites.

Loading next visibility...
Identifier
64541, 2025-135P
Orbit
SSO
Country
Flag of USUS
Related business
Manufacturer
Aerospacelab
Mission
Operational Commercial Navigation
Bus & Motor
PULSAR, AOCS
Mass
149 kg wet, 144 kg dry
Launch date (UTC)
2025-06-23 (7 months ago)
Launch vehicle
FALCON 9
Launch site
Air Force Western Test Range (AFWTR)
Object type
Payload
Rocket body
Debris
Shape & HBR
Box + 2 Pan, 1.0 m
Radar Cross Section
0.963 m², Large (>1 m²)

Expand to show TLE details & history
Last TLE update: 7 hours ago

TLE from 7 hours ago
0 PULSAR-0
1 64541U 25135P   26036.21246501  .00005831  00000-0  27955-3 0  9992
2 64541  97.4564 152.3309 0001807 295.2673  64.8374 15.19288648 34786
Epoch: 2026-02-05T05:05Z
TLE epoch observation values (Epoch: 2026-02-05T05:05:56.976Z)
Latitude
-0.00007°
Longitude
-59.52442°
Altitude
510.548 km
Speed
7.609 km/s
True Right ascension
10h 09m 19s
True Declination
0° 00' 00"
Sunlit
Object was in full shadow at epoch
Visualization orbit readout
Latitude
Unknown
Longitude
Unknown
Altitude
Unknown
Speed
Unknown
Apparent Right ascension
Unknown
Apparent Declination
Unknown
Sunlit
N/A
Visualization observer readout
Local Sidereal Time
14:13:43
Azimuth
Unknown
Elevation
Unknown
Doppler factor
Unknown
Orbital elements
Apogee altitude
506.202 km
Perigee altitude
503.714 km
Semi-major axis
6,883.095 km
Eccentricity
0.00018
Inclination
97.4564°
RAAN
152.3309°
Arg. of periapsis
295.2673°
True anomaly
64.85614°
Mean anomaly
64.8374°
Eccentric anomaly
64.84677°
Mean motion
3.80073 °/min
Orbital period
94.72 mins
BSTAR
0.00027955
Loading maneuver chart data...
Computing Atmospheric mass density...
Loading historical data...
Loading historical data...
Loading historical data...
Loading historical data...
Loading historical data...
Loading historical data...
Loading historical data...

Documentation

Showing up to 5 results
|